Flag for Falkland Islands Weather past 2 weeks in Stanley, Falkland Islands

Now
46 °F

Passing clouds.


Feels Like: 38 °F
Forecast: 47 / 53 °F
Wind: 25 mph from West

Location: Mount Pleasant Airport

Current Time: Mar 29, 2015 at 11:49:52 PM

Latest Report: Mar 29, 2015 at 10:50 PM


Visibility: 2 mi

Pressure: 29.18 "Hg

Humidity: 100%

Dew point: 46 °F

Location of StanleyLocation

Historic Weather in Stanley — Graph

°F

Stanley temperature yesterday

Maximum temperature yesterday: 61 °F (at 12:50 PM)
Minimum temperature yesterday: 45 °F (at 9:50 PM)
Average temperature yesterday: 52 °F

Past Weeks' High & Low Weather Summary

 TemperatureHumidityPressure
High64 °F (Mar 16, 1:50 PM)100% (Mar 16, 8:50 AM)30.39 "Hg (Mar 16, 8:50 AM)
Low36 °F (Mar 20, 10:50 PM)31% (Mar 15, 11:50 AM)29.12 "Hg (Mar 16, 3:50 PM)
Average49 °F79%29.76 "Hg
* Reported Mar 14 9:50 PM — Mar 29 9:50 PM, Stanley, Weather by CustomWeather, © 2015

Note: Actual official high and low records may vary slightly from our data, if they occured in-between our weather recording intervals... More about our weather records

Advertising

Stanley weather history for previous 24 hours

 ConditionsComfort  
Time TempWeatherWind HumidityBarometerVisibility
9:50 PM
Sun, Mar 29
48 °FLight rain. Partly cloudy.24 mph94%29.18 "Hg2 mi
8:50 PM50 °FLight rain. Passing clouds.17 mph88%29.21 "HgN/A
7:50 PM50 °FPassing clouds.24 mph82%29.21 "HgN/A
6:50 PM50 °FPartly cloudy.16 mph88%29.21 "HgN/A
5:50 PM54 °FPartly sunny.21 mph77%29.21 "HgN/A
4:50 PM59 °FPassing clouds.21 mph68%29.18 "HgN/A
3:50 PM63 °FPassing clouds.21 mph56%29.18 "HgN/A
2:50 PM63 °FPassing clouds.25 mph56%29.18 "HgN/A
1:50 PM61 °FPassing clouds.10 mph68%29.21 "HgN/A
12:50 PM59 °FScattered clouds.16 mph72%29.24 "HgN/A
11:50 AM52 °FBroken clouds.20 mph88%29.24 "HgN/A
10:50 AM52 °FBroken clouds.23 mph82%29.27 "HgN/A
9:50 AM50 °FDrizzle. Broken clouds.16 mph94%29.30 "HgN/A
8:50 AM48 °FDrizzle. Broken clouds.20 mph100%29.33 "Hg4 mi
7:50 AM46 °FDrizzle. Broken clouds.9 mph100%29.39 "Hg2 mi
6:50 AM48 °FLight rain. Passing clouds.20 mph94%29.39 "HgN/A
5:50 AM48 °FPassing clouds.21 mph94%29.42 "HgN/A
4:50 AM46 °FFog.25 mph100%29.45 "Hg5 mi
3:50 AM46 °FFog.32 mph93%29.47 "Hg1 mi
2:50 AM48 °FPartly cloudy.18 mph87%29.50 "HgN/A
1:50 AM50 °FPassing clouds.8 mph88%29.53 "HgN/A
12:50 AM50 °FPassing clouds.13 mph88%29.56 "HgN/A
11:50 PM
Sat, Mar 28
48 °FPassing clouds.16 mph100%29.59 "HgN/A
Weather by CustomWeather, © 2015

See weather overviewHow to use our weather pages